| time (UTC) | temp F | wind direction | speed MPH | gust MPH | rain 1hr in | rain 24hr in | rain mn in | humidity % | barometer mb |
| 20260506192642 | 60 | 206 | 16.0 | 21.0 | 0.00 | 0.39 | 0.39 | 90 | 1002.8 |
| 20260506192027 | 60 | 197 | 11.0 | 20.0 | 0.00 | 0.39 | 0.39 | 90 | 1002.9 |
| 20260506191528 | 60 | 224 | 9.0 | 16.0 | 0.00 | 0.39 | 0.39 | 90 | 1002.8 |
| 20260506191027 | 60 | 203 | 9.0 | 18.0 | 0.04 | 0.39 | 0.39 | 91 | 1002.8 |
| 20260506190642 | 60 | 203 | 10.0 | 18.0 | 0.04 | 0.39 | 0.39 | 90 | 1002.9 |
| 20260506190143 | 60 | 194 | 11.0 | 19.0 | 0.08 | 0.39 | 0.39 | 91 | 1002.9 |
| 20260506185529 | 60 | 214 | 8.0 | 19.0 | 0.13 | 0.39 | 0.39 | 91 | 1002.9 |
| 20260506185142 | 60 | 201 | 10.0 | 17.0 | 0.17 | 0.38 | 0.38 | 91 | 1003.0 |
| 20260506184528 | 60 | 229 | 9.0 | 17.0 | 0.14 | 0.36 | 0.36 | 92 | 1003.1 |
| 20260506184143 | 60 | 167 | 11.0 | 16.0 | 0.11 | 0.36 | 0.36 | 92 | 1003.0 |
| 20260506183528 | 60 | 196 | 6.0 | 10.0 | 0.07 | 0.34 | 0.34 | 93 | 1003.0 |
| 20260506183143 | 60 | 226 | 5.0 | 7.0 | 0.07 | 0.34 | 0.34 | 93 | 1003.0 |
| 20260506182527 | 60 | 216 | 3.0 | 5.0 | 0.05 | 0.33 | 0.33 | 93 | 1003.0 |
| 20260506182026 | 60 | 258 | 2.0 | 6.0 | 0.05 | 0.33 | 0.33 | 93 | 1003.0 |
| 20260506181529 | 60 | 191 | 3.0 | 6.0 | 0.04 | 0.32 | 0.32 | 93 | 1003.0 |
| 20260506181027 | 60 | 209 | 4.0 | 6.0 | 0.04 | 0.32 | 0.32 | 93 | 1003.1 |
| 20260506180528 | 60 | 227 | 4.0 | 6.0 | 0.05 | 0.31 | 0.31 | 93 | 1003.2 |
| 20260506180029 | 59 | 243 | 4.0 | 7.0 | 0.07 | 0.31 | 0.31 | 93 | 1003.2 |
| 20260506175643 | 59 | 229 | 4.0 | 7.0 | 0.07 | 0.31 | 0.31 | 93 | 1003.3 |
| 20260506175027 | 59 | 227 | 5.0 | 7.0 | 0.07 | 0.30 | 0.30 | 93 | 1003.4 |
| 20260506174529 | 59 | 205 | 4.0 | 8.0 | 0.07 | 0.30 | 0.30 | 93 | 1003.3 |
| 20260506174142 | 59 | 196 | 5.0 | 8.0 | 0.12 | 0.28 | 0.28 | 93 | 1003.4 |
| 20260506173528 | 59 | 136 | 3.0 | 8.0 | 0.24 | 0.28 | 0.28 | 92 | 1003.5 |
| 20260506173029 | 59 | 197 | 3.0 | 8.0 | 0.39 | 0.26 | 0.26 | 92 | 1003.7 |
| 20260506172527 | 59 | 196 | 5.0 | 9.0 | 0.16 | 0.23 | 0.23 | 91 | 1003.7 |
| 20260506172027 | 60 | 195 | 2.0 | 9.0 | 0.25 | 0.22 | 0.22 | 92 | 1003.7 |
| 20260506171644 | 60 | 207 | 3.0 | 10.0 | 0.17 | 0.20 | 0.20 | 92 | 1003.9 |
| 20260506171142 | 60 | 187 | 3.0 | 10.0 | 0.12 | 0.19 | 0.19 | 91 | 1003.7 |
| 20260506170643 | 60 | 164 | 5.0 | 10.0 | 0.16 | 0.18 | 0.18 | 91 | 1003.7 |
| 20260506170143 | 60 | 103 | 1.0 | 11.0 | 0.22 | 0.16 | 0.16 | 91 | 1003.9 |
| 20260506165528 | 60 | 168 | 4.0 | 11.0 | 0.17 | 0.15 | 0.15 | 91 | 1004.1 |
| 20260506165027 | 60 | 185 | 2.0 | 7.0 | 0.11 | 0.13 | 0.13 | 91 | 1004.3 |
| 20260506164529 | 60 | 164 | 1.0 | 6.0 | 0.12 | 0.12 | 0.12 | 91 | 1004.3 |
| 20260506164027 | 60 | 202 | 2.0 | 7.0 | 0.09 | 0.11 | 0.11 | 90 | 1004.3 |
| 20260506163527 | 60 | 195 | 6.0 | 9.0 | 0.12 | 0.10 | 0.10 | 90 | 1004.3 |
| 20260506163030 | 60 | 201 | 8.0 | 9.0 | 0.12 | 0.09 | 0.09 | 90 | 1004.4 |
| 20260506162757 | 60 | 209 | 7.0 | 17.0 | 0.11 | 0.09 | 0.09 | 89 | 1004.3 |
| 20260506162028 | 61 | 203 | 6.0 | 17.0 | 0.09 | 0.08 | 0.08 | 89 | 1004.5 |
| 20260506161529 | 61 | 210 | 1.0 | 12.0 | 0.10 | 0.07 | 0.07 | 89 | 1004.4 |
| 20260506161026 | 61 | 214 | 6.0 | 8.0 | 0.06 | 0.06 | 0.06 | 89 | 1004.5 |
| 20260506160642 | 61 | 197 | 4.0 | 7.0 | 0.00 | 0.05 | 0.05 | 89 | 1004.6 |
| 20260506160028 | 61 | 217 | 4.0 | 6.0 | 0.00 | 0.05 | 0.05 | 89 | 1004.6 |
| 20260506155528 | 61 | 226 | 5.0 | 7.0 | 0.00 | 0.04 | 0.04 | 89 | 1004.5 |
| 20260506155142 | 61 | 226 | 4.0 | 7.0 | 0.00 | 0.04 | 0.04 | 88 | 1004.5 |
| 20260506154643 | 61 | 235 | 1.0 | 4.0 | 0.00 | 0.04 | 0.04 | 88 | 1004.3 |
| 20260506154143 | 61 | 201 | 2.0 | 7.0 | 0.00 | 0.04 | 0.04 | 89 | 1004.4 |
| 20260506153527 | 61 | 190 | 3.0 | 7.0 | 0.00 | 0.04 | 0.04 | 88 | 1004.4 |
| 20260506153029 | 61 | 178 | 1.0 | 4.0 | 0.00 | 0.03 | 0.03 | 88 | 1004.4 |
| 20260506152528 | 61 | 184 | 2.0 | 6.0 | 0.00 | 0.03 | 0.03 | 88 | 1004.5 |
| 20260506152028 | 61 | 199 | 3.0 | 10.0 | 0.00 | 0.03 | 0.03 | 87 | 1004.7 |
| 20260506151528 | 61 | 199 | 6.0 | 10.0 | 0.00 | 0.03 | 0.03 | 86 | 1004.8 |
| 20260506151027 | 62 | 271 | 3.0 | 9.0 | 0.00 | 0.02 | 0.02 | 86 | 1004.9 |
| 20260506150642 | 62 | 201 | 5.0 | 9.0 | 0.04 | 0.02 | 0.02 | 85 | 1004.9 |
| 20260506150143 | 62 | 207 | 5.0 | 14.0 | 0.05 | 0.02 | 0.02 | 85 | 1005.0 |
| 20260506145642 | 62 | 202 | 6.0 | 14.0 | 0.05 | 0.02 | 0.02 | 85 | 1005.1 |
| 20260506145142 | 62 | 199 | 4.0 | 14.0 | 0.00 | 0.01 | 0.01 | 84 | 1005.1 |
| 20260506144644 | 62 | 173 | 9.0 | 14.0 | 0.00 | 0.01 | 0.01 | 83 | 1005.2 |
| 20260506144028 | 63 | 212 | 10.0 | 16.0 | 0.00 | 0.01 | 0.01 | 82 | 1005.2 |
| 20260506143528 | 63 | 187 | 8.0 | 16.0 | 0.00 | 0.00 | 0.00 | 80 | 1005.3 |
| 20260506143028 | 64 | 218 | 2.0 | 18.0 | 0.00 | 0.00 | 0.00 | 79 | 1005.2 |
| 20260506142643 | 64 | 198 | 7.0 | 18.0 | 0.00 | 0.00 | 0.00 | 78 | 1005.2 |
| 20260506142027 | 64 | 192 | 17.0 | 19.0 | 0.00 | 0.00 | 0.00 | 76 | 1005.2 |
| 20260506141529 | 64 | 190 | 5.0 | 22.0 | 0.00 | 0.00 | 0.00 | 76 | 1005.2 |
| 20260506141027 | 64 | 200 | 7.0 | 22.0 | 0.00 | 0.00 | 0.00 | 76 | 1005.1 |
| 20260506140528 | 64 | 208 | 4.0 | 10.0 | 0.00 | 0.00 | 0.00 | 78 | 1005.1 |
| 20260506140144 | 64 | 195 | 4.0 | 9.0 | 0.00 | 0.00 | 0.00 | 78 | 1004.9 |
| 20260506135643 | 64 | 194 | 3.0 | 9.0 | 0.00 | 0.00 | 0.00 | 78 | 1005.0 |
| 20260506135027 | 64 | 159 | 0.0 | 11.0 | 0.00 | 0.00 | 0.00 | 78 | 1004.8 |
| 20260506134528 | 64 | 143 | 0.0 | 11.0 | 0.00 | 0.00 | 0.00 | 78 | 1004.8 |
| 20260506134027 | 64 | 167 | 5.0 | 9.0 | 0.00 | 0.00 | 0.00 | 78 | 1004.8 |
| 20260506133528 | 64 | 181 | 4.0 | 13.0 | 0.00 | 0.00 | 0.00 | 78 | 1004.7 |
| 20260506133028 | 64 | 152 | 7.0 | 13.0 | 0.00 | 0.00 | 0.00 | 78 | 1004.6 |
| 20260506132643 | 64 | 98 | 3.0 | 12.0 | 0.00 | 0.00 | 0.00 | 78 | 1004.6 |
| 20260506132142 | 63 | 206 | 2.0 | 12.0 | 0.00 | 0.00 | 0.00 | 79 | 1004.7 |
| 20260506131529 | 63 | 73 | 3.0 | 8.0 | 0.00 | 0.00 | 0.00 | 79 | 1004.8 |
| 20260506131027 | 63 | 140 | 0.0 | 9.0 | 0.00 | 0.00 | 0.00 | 79 | 1004.8 |
| 20260506130642 | 62 | 129 | 5.0 | 9.0 | 0.00 | 0.00 | 0.00 | 79 | 1004.8 |
| 20260506130259 | 62 | 214 | 5.0 | 9.0 | 0.00 | 0.00 | 0.00 | 80 | 1004.8 |
| 20260506125527 | 62 | 143 | 4.0 | 9.0 | 0.00 | 0.00 | 0.00 | 80 | 1005.1 |
| 20260506125142 | 62 | 127 | 2.0 | 7.0 | 0.00 | 0.00 | 0.00 | 80 | 1005.1 |
| 20260506124645 | 62 | 197 | 2.0 | 6.0 | 0.00 | 0.00 | 0.00 | 80 | 1005.2 |
| 20260506124142 | 61 | 184 | 1.0 | 9.0 | 0.00 | 0.00 | 0.00 | 80 | 1005.3 |
| 20260506123528 | 61 | 239 | 2.0 | 11.0 | 0.00 | 0.00 | 0.00 | 80 | 1005.5 |
| 20260506123027 | 61 | 241 | 2.0 | 11.0 | 0.00 | 0.00 | 0.00 | 80 | 1005.5 |
| 20260506122528 | 61 | 111 | 3.0 | 12.0 | 0.00 | 0.00 | 0.00 | 80 | 1005.5 |
| 20260506122027 | 61 | 186 | 7.0 | 14.0 | 0.00 | 0.00 | 0.00 | 80 | 1005.6 |
| 20260506121529 | 61 | 95 | 1.0 | 14.0 | 0.00 | 0.00 | 0.00 | 80 | 1005.5 |
| 20260506121029 | 61 | 179 | 6.0 | 11.0 | 0.00 | 0.00 | 0.00 | 80 | 1005.5 |
| 20260506120528 | 61 | 174 | 6.0 | 11.0 | 0.00 | 0.00 | 0.00 | 79 | 1005.5 |
| 20260506120029 | 61 | 154 | 1.0 | 10.0 | 0.00 | 0.00 | 0.00 | 79 | 1005.5 |
| 20260506115527 | 61 | 141 | 6.0 | 10.0 | 0.00 | 0.00 | 0.00 | 79 | 1005.4 |
| 20260506115142 | 61 | 254 | 4.0 | 13.0 | 0.00 | 0.00 | 0.00 | 79 | 1005.4 |
| 20260506114027 | 61 | 85 | 2.0 | 13.0 | 0.00 | 0.00 | 0.00 | 79 | 1005.2 |
| 20260506113643 | 61 | 187 | 2.0 | 16.0 | 0.00 | 0.00 | 0.00 | 79 | 1005.2 |
| 20260506113143 | 61 | 174 | 8.0 | 16.0 | 0.00 | 0.00 | 0.00 | 79 | 1005.2 |
| 20260506112528 | 60 | 229 | 5.0 | 11.0 | 0.00 | 0.00 | 0.00 | 79 | 1004.8 |
| 20260506112027 | 60 | 169 | 5.0 | 16.0 | 0.00 | 0.00 | 0.00 | 79 | 1004.9 |
| 20260506111529 | 60 | 111 | 11.0 | 16.0 | 0.00 | 0.00 | 0.00 | 79 | 1005.0 |
| 20260506111143 | 60 | 272 | 2.0 | 15.0 | 0.00 | 0.00 | 0.00 | 79 | 1005.2 |
| 20260506110528 | 60 | 27 | 4.0 | 15.0 | 0.00 | 0.00 | 0.00 | 79 | 1005.1 |
| 20260506110029 | 60 | 181 | 3.0 | 15.0 | 0.00 | 0.00 | 0.00 | 79 | 1005.3 |
| 20260506105758 | 60 | 359 | 4.0 | 18.0 | 0.00 | 0.00 | 0.00 | 79 | 1005.3 |
| 20260506105027 | 60 | 138 | 1.0 | 18.0 | 0.00 | 0.00 | 0.00 | 79 | 1005.2 |
| 20260506104528 | 60 | 151 | 7.0 | 14.0 | 0.00 | 0.00 | 0.00 | 80 | 1005.2 |
| 20260506104027 | 59 | 206 | 9.0 | 12.0 | 0.00 | 0.00 | 0.00 | 81 | 1005.3 |
| 20260506103528 | 58 | 93 | 2.0 | 11.0 | 0.00 | 0.00 | 0.00 | 83 | 1005.1 |
| 20260506103143 | 58 | 144 | 3.0 | 10.0 | 0.00 | 0.00 | 0.00 | 85 | 1005.2 |
| 20260506102757 | 57 | 191 | 7.0 | 11.0 | 0.00 | 0.00 | 0.00 | 86 | 1005.1 |
| 20260506102027 | 55 | 198 | 5.0 | 11.0 | 0.00 | 0.00 | 0.00 | 90 | 1005.1 |
| 20260506101530 | 54 | 179 | 4.0 | 10.0 | 0.00 | 0.00 | 0.00 | 94 | 1005.1 |
| 20260506101027 | 53 | 195 | 8.0 | 8.0 | 0.00 | 0.00 | 0.00 | 95 | 1005.1 |
| 20260506100527 | 52 | 218 | 1.0 | 4.0 | 0.00 | 0.00 | 0.00 | 96 | 1005.1 |
| 20260506100029 | 51 | 236 | 3.0 | 3.0 | 0.00 | 0.00 | 0.00 | 96 | 1005.0 |
| 20260506095642 | 51 | 236 | 0.0 | 4.0 | 0.00 | 0.00 | 0.00 | 95 | 1004.9 |
| 20260506095028 | 51 | 236 | 0.0 | 4.0 | 0.00 | 0.00 | 0.00 | 95 | 1004.9 |
| 20260506094528 | 51 | 297 | 0.0 | 0.0 | 0.00 | 0.00 | 0.00 | 95 | 1004.9 |
| 20260506094142 | 51 | 297 | 0.0 | 2.0 | 0.00 | 0.00 | 0.00 | 95 | 1004.8 |
| 20260506093642 | 51 | 297 | 0.0 | 2.0 | 0.00 | 0.00 | 0.00 | 95 | 1004.8 |
| 20260506093144 | 51 | 297 | 2.0 | 3.0 | 0.00 | 0.00 | 0.00 | 95 | 1004.9 |
| 20260506092530 | 51 | 297 | 0.0 | 3.0 | 0.00 | 0.00 | 0.00 | 95 | 1005.0 |
| 20260506092257 | 51 | 297 | 1.0 | 3.0 | 0.00 | 0.00 | 0.00 | 94 | 1004.9 |
| 20260506091529 | 52 | 297 | 1.0 | 4.0 | 0.00 | 0.00 | 0.00 | 95 | 1004.8 |
| 20260506091142 | 51 | 297 | 1.0 | 4.0 | 0.00 | 0.00 | 0.00 | 94 | 1004.9 |
| 20260506090528 | 52 | 299 | 0.0 | 4.0 | 0.00 | 0.00 | 0.00 | 94 | 1004.9 |
| 20260506090144 | 52 | 238 | 0.0 | 0.0 | 0.00 | 0.00 | 0.00 | 94 | 1004.9 |
| 20260506085527 | 52 | 238 | 0.0 | 0.0 | 0.00 | 0.00 | 0.00 | 94 | 1005.1 |
| 20260506085142 | 52 | 238 | 0.0 | 0.0 | 0.00 | 0.00 | 0.00 | 94 | 1005.2 |
| 20260506084529 | 52 | 238 | 0.0 | 0.0 | 0.00 | 0.00 | 0.00 | 94 | 1005.3 |
| 20260506084027 | 53 | 238 | 0.0 | 0.0 | 0.00 | 0.00 | 0.00 | 94 | 1005.1 |
| 20260506083527 | 53 | 238 | 0.0 | 0.0 | 0.00 | 0.00 | 0.00 | 94 | 1005.1 |
| 20260506083029 | 53 | 238 | 0.0 | 0.0 | 0.00 | 0.00 | 0.00 | 94 | 1005.1 |
| 20260506082529 | 53 | 238 | 0.0 | 0.0 | 0.00 | 0.00 | 0.00 | 94 | 1005.2 |
| 20260506082027 | 53 | 238 | 0.0 | 0.0 | 0.00 | 0.00 | 0.00 | 94 | 1005.3 |
| 20260506081645 | 53 | 238 | 0.0 | 0.0 | 0.00 | 0.00 | 0.00 | 94 | 1005.2 |
| 20260506081027 | 53 | 238 | 0.0 | 0.0 | 0.00 | 0.00 | 0.00 | 93 | 1005.5 |
| 20260506080528 | 54 | 238 | 0.0 | 0.0 | 0.00 | 0.00 | 0.00 | 94 | 1005.4 |
| 20260506080143 | 54 | 238 | 0.0 | 0.0 | 0.00 | 0.00 | 0.00 | 94 | 1005.5 |
| 20260506073029 | 55 | 238 | 0.0 | 2.0 | 0.00 | 0.00 | 0.00 | 93 | 1005.6 |
| 20260506072527 | 55 | 238 | 1.0 | 2.0 | 0.00 | 0.00 | 0.00 | 93 | 1005.8 |
| 20260506072027 | 55 | 238 | 1.0 | 2.0 | 0.00 | 0.00 | 0.00 | 93 | 1005.8 |
| 20260506071528 | 55 | 238 | 1.0 | 4.0 | 0.00 | 0.00 | 0.00 | 93 | 1005.9 |
| 20260506071027 | 55 | 238 | 1.0 | 4.0 | 0.00 | 0.00 | 0.00 | 93 | 1005.9 |
| 20260506070642 | 55 | 214 | 3.0 | 4.0 | 0.00 | 0.00 | 0.00 | 93 | 1006.0 |
| 20260506062028 | 56 | 170 | 0.0 | 0.0 | 0.00 | 0.00 | 0.00 | 92 | 1005.9 |
| 20260506061528 | 56 | 170 | 0.0 | 0.0 | 0.00 | 0.00 | 0.00 | 92 | 1005.9 |
| 20260506061027 | 56 | 170 | 0.0 | 0.0 | 0.00 | 0.00 | 0.00 | 92 | 1006.0 |
| 20260506060643 | 56 | 170 | 0.0 | 2.0 | 0.00 | 0.00 | 0.00 | 92 | 1005.9 |
| 20260506060145 | 56 | 170 | 0.0 | 2.0 | 0.00 | 0.00 | 0.00 | 92 | 1006.0 |
| 20260506051142 | 57 | 169 | 0.0 | 0.0 | 0.00 | 0.00 | 0.00 | 92 | 1006.2 |
| 20260506050528 | 57 | 169 | 0.0 | 4.0 | 0.00 | 0.00 | 0.00 | 92 | 1006.5 |
| 20260506045027 | 58 | 125 | 0.0 | 0.0 | 0.00 | 0.00 | 0.00 | 90 | 1006.4 |
| 20260506044528 | 58 | 125 | 0.0 | 2.0 | 0.00 | 0.00 | 0.00 | 90 | 1006.4 |
| 20260506044027 | 58 | 251 | 0.0 | 3.0 | 0.00 | 0.00 | 0.00 | 91 | 1006.4 |
| 20260506043527 | 58 | 251 | 1.0 | 3.0 | 0.00 | 0.00 | 0.00 | 91 | 1006.3 |
| 20260506043028 | 58 | 251 | 1.0 | 4.0 | 0.00 | 0.00 | 0.00 | 91 | 1006.2 |
| 20260506042527 | 58 | 251 | 2.0 | 4.0 | 0.00 | 0.00 | 0.00 | 91 | 1006.1 |
| 20260506042028 | 58 | 251 | 2.0 | 3.0 | 0.00 | 0.00 | 0.00 | 91 | 1006.1 |
| 20260506041643 | 58 | 251 | 2.0 | 3.0 | 0.00 | 0.00 | 0.00 | 91 | 1006.1 |
| 20260506041027 | 59 | 212 | 2.0 | 3.0 | 0.00 | 0.00 | 0.00 | 91 | 1006.1 |
| 20260506040527 | 59 | 212 | 0.0 | 4.0 | 0.00 | 0.00 | 0.00 | 91 | 1006.0 |
| 20260506040028 | 59 | 212 | 2.0 | 4.0 | 0.00 | 0.00 | 0.00 | 91 | 1006.1 |
| 20260506035528 | 59 | 160 | 0.0 | 2.0 | 0.00 | 0.01 | 0.01 | 90 | 1005.9 |
| 20260506035027 | 59 | 160 | 0.0 | 6.0 | 0.00 | 0.01 | 0.01 | 90 | 1006.0 |
| 20260506034530 | 59 | 135 | 1.0 | 6.0 | 0.00 | 0.01 | 0.01 | 90 | 1005.9 |
| 20260506034142 | 59 | 154 | 2.0 | 3.0 | 0.00 | 0.01 | 0.01 | 89 | 1005.9 |
| 20260506033528 | 59 | 286 | 2.0 | 3.0 | 0.00 | 0.01 | 0.01 | 90 | 1006.1 |
| 20260506033028 | 59 | 285 | 0.0 | 0.0 | 0.00 | 0.01 | 0.01 | 90 | 1006.0 |
| 20260506032528 | 59 | 285 | 0.0 | 0.0 | 0.00 | 0.01 | 0.01 | 89 | 1005.9 |
| 20260506032142 | 59 | 285 | 0.0 | 0.0 | 0.00 | 0.01 | 0.01 | 90 | 1005.8 |
| 20260506031644 | 60 | 285 | 0.0 | 0.0 | 0.00 | 0.01 | 0.01 | 90 | 1005.8 |
| 20260506031143 | 60 | 285 | 0.0 | 0.0 | 0.00 | 0.01 | 0.01 | 89 | 1005.8 |
| 20260506030527 | 60 | 319 | 0.0 | 0.0 | 0.00 | 0.01 | 0.01 | 89 | 1005.8 |
| 20260506030029 | 59 | 320 | 0.0 | 0.0 | 0.00 | 0.01 | 0.01 | 89 | 1005.7 |
| 20260506025643 | 60 | 316 | 0.0 | 1.0 | 0.00 | 0.01 | 0.01 | 89 | 1005.9 |
| 20260506025143 | 60 | 316 | 0.0 | 1.0 | 0.00 | 0.01 | 0.01 | 89 | 1006.0 |
| 20260506024528 | 60 | 315 | 0.0 | 3.0 | 0.00 | 0.01 | 0.01 | 89 | 1005.9 |
| 20260506024028 | 60 | 316 | 0.0 | 3.0 | 0.00 | 0.01 | 0.01 | 89 | 1005.9 |
| 20260506023527 | 60 | 316 | 2.0 | 5.0 | 0.00 | 0.01 | 0.01 | 89 | 1005.9 |
| 20260506023028 | 60 | 324 | 4.0 | 5.0 | 0.00 | 0.01 | 0.01 | 89 | 1006.0 |
| 20260506022642 | 60 | 255 | 2.0 | 3.0 | 0.00 | 0.01 | 0.01 | 89 | 1006.0 |
| 20260506022027 | 60 | 174 | 0.0 | 2.0 | 0.00 | 0.01 | 0.01 | 88 | 1006.1 |
| 20260506021529 | 60 | 298 | 0.0 | 0.0 | 0.00 | 0.01 | 0.01 | 88 | 1006.1 |
| 20260506021142 | 60 | 299 | 0.0 | 0.0 | 0.00 | 0.01 | 0.01 | 88 | 1006.2 |
| 20260506020527 | 60 | 299 | 0.0 | 1.0 | 0.00 | 0.01 | 0.01 | 87 | 1006.1 |
| 20260506020027 | 60 | 299 | 0.0 | 1.0 | 0.00 | 0.01 | 0.01 | 87 | 1006.1 |
| 20260506015527 | 60 | 299 | 1.0 | 4.0 | 0.00 | 0.01 | 0.01 | 87 | 1006.2 |
| 20260506015027 | 61 | 299 | 2.0 | 4.0 | 0.00 | 0.01 | 0.01 | 87 | 1006.1 |
| 20260506014528 | 61 | 108 | 0.0 | 0.0 | 0.00 | 0.01 | 0.01 | 86 | 1006.0 |
| 20260506014031 | 61 | 108 | 0.0 | 0.0 | 0.00 | 0.01 | 0.01 | 85 | 1005.9 |
| 20260506013643 | 62 | 108 | 0.0 | 6.0 | 0.00 | 0.01 | 0.01 | 83 | 1005.8 |
| 20260506013258 | 62 | 31 | 0.0 | 6.0 | 0.00 | 0.01 | 0.01 | 83 | 1005.8 |
| 20260506012642 | 61 | 4 | 5.0 | 5.0 | 0.00 | 0.01 | 0.01 | 84 | 1005.8 |
| 20260506012027 | 61 | 342 | 4.0 | 5.0 | 0.00 | 0.01 | 0.01 | 84 | 1005.9 |
| 20260506011529 | 61 | 252 | 3.0 | 4.0 | 0.00 | 0.01 | 0.01 | 84 | 1005.9 |
| 20260506011028 | 61 | 252 | 2.0 | 3.0 | 0.00 | 0.01 | 0.01 | 84 | 1005.6 |
| 20260506010528 | 61 | 252 | 1.0 | 3.0 | 0.00 | 0.01 | 0.01 | 84 | 1005.6 |
| 20260506010027 | 61 | 252 | 1.0 | 3.0 | 0.00 | 0.01 | 0.01 | 85 | 1005.5 |
| 20260506005528 | 61 | 252 | 2.0 | 3.0 | 0.00 | 0.01 | 0.01 | 84 | 1005.4 |
| 20260506005027 | 62 | 252 | 2.0 | 3.0 | 0.00 | 0.01 | 0.01 | 84 | 1005.4 |
| 20260506004529 | 62 | 210 | 0.0 | 3.0 | 0.00 | 0.01 | 0.01 | 83 | 1005.4 |
| 20260506004028 | 62 | 210 | 0.0 | 3.0 | 0.00 | 0.01 | 0.01 | 82 | 1005.3 |
| 20260506003527 | 63 | 210 | 1.0 | 3.0 | 0.00 | 0.01 | 0.01 | 81 | 1005.3 |
| 20260506003028 | 63 | 210 | 0.0 | 2.0 | 0.00 | 0.01 | 0.01 | 79 | 1005.2 |
| 20260506002643 | 63 | 210 | 0.0 | 2.0 | 0.00 | 0.01 | 0.01 | 79 | 1005.1 |
| 20260506002027 | 63 | 210 | 1.0 | 2.0 | 0.00 | 0.01 | 0.01 | 78 | 1005.0 |
| 20260506001644 | 63 | 210 | 0.0 | 2.0 | 0.00 | 0.01 | 0.01 | 77 | 1005.0 |
| 20260506001027 | 63 | 210 | 1.0 | 4.0 | 0.00 | 0.01 | 0.01 | 78 | 1004.9 |
| 20260506000528 | 64 | 210 | 0.0 | 4.0 | 0.00 | 0.01 | 0.01 | 77 | 1004.8 |
| 20260506000028 | 63 | 273 | 2.0 | 3.0 | 0.00 | 0.01 | 0.01 | 77 | 1004.8 |
| 20260505235528 | 64 | 21 | 1.0 | 2.0 | 0.00 | 0.01 | 0.01 | 77 | 1004.8 |
| 20260505235027 | 64 | 21 | 0.0 | 0.0 | 0.00 | 0.01 | 0.01 | 75 | 1004.8 |
| 20260505234644 | 64 | 21 | 0.0 | 0.0 | 0.00 | 0.01 | 0.01 | 76 | 1004.8 |
| 20260505234027 | 64 | 21 | 0.0 | 0.0 | 0.00 | 0.01 | 0.01 | 75 | 1005.0 |
| 20260505233527 | 64 | 21 | 0.0 | 1.0 | 0.00 | 0.01 | 0.01 | 74 | 1005.2 |
| 20260505233028 | 64 | 21 | 0.0 | 3.0 | 0.00 | 0.01 | 0.01 | 74 | 1005.0 |
| 20260505232527 | 64 | 21 | 0.0 | 3.0 | 0.00 | 0.01 | 0.01 | 73 | 1005.0 |
| 20260505232142 | 64 | 17 | 2.0 | 3.0 | 0.00 | 0.01 | 0.01 | 74 | 1005.0 |
| 20260505231529 | 65 | 15 | 0.0 | 4.0 | 0.00 | 0.01 | 0.01 | 73 | 1004.9 |
| 20260505231027 | 65 | 14 | 1.0 | 10.0 | 0.00 | 0.01 | 0.01 | 73 | 1004.7 |
| 20260505230643 | 65 | 108 | 0.0 | 10.0 | 0.00 | 0.01 | 0.01 | 72 | 1004.6 |
| 20260505230144 | 65 | 70 | 3.0 | 10.0 | 0.00 | 0.01 | 0.01 | 71 | 1005.0 |
| 20260505225527 | 65 | 74 | 10.0 | 10.0 | 0.00 | 0.01 | 0.01 | 69 | 1005.1 |
| 20260505225027 | 66 | 23 | 3.0 | 14.0 | 0.00 | 0.01 | 0.01 | 68 | 1005.1 |
| 20260505224529 | 65 | 314 | 4.0 | 14.0 | 0.00 | 0.01 | 0.01 | 69 | 1005.0 |
| 20260505224028 | 65 | 301 | 14.0 | 17.0 | 0.00 | 0.01 | 0.01 | 71 | 1004.8 |
| 20260505223527 | 65 | 306 | 14.0 | 19.0 | 0.00 | 0.01 | 0.01 | 72 | 1004.5 |
| 20260505223143 | 65 | 300 | 9.0 | 27.0 | 0.00 | 0.01 | 0.01 | 72 | 1004.3 |
| 20260505222757 | 65 | 316 | 11.0 | 32.0 | 0.00 | 0.01 | 0.01 | 70 | 1004.3 |
| 20260505222028 | 71 | 301 | 17.0 | 32.0 | 0.00 | 0.01 | 0.01 | 56 | 1004.1 |
| 20260505221528 | 76 | 282 | 24.0 | 25.0 | 0.00 | 0.01 | 0.01 | 41 | 1003.7 |
| 20260505221026 | 77 | 283 | 7.0 | 25.0 | 0.00 | 0.01 | 0.01 | 35 | 1003.1 |
| 20260505220643 | 77 | 234 | 11.0 | 24.0 | 0.00 | 0.01 | 0.01 | 35 | 1002.9 |
| 20260505220028 | 77 | 213 | 9.0 | 26.0 | 0.00 | 0.01 | 0.01 | 33 | 1002.5 |
| 20260505215528 | 77 | 214 | 10.0 | 26.0 | 0.00 | 0.01 | 0.01 | 34 | 1002.4 |
| 20260505215027 | 78 | 196 | 9.0 | 27.0 | 0.00 | 0.01 | 0.01 | 34 | 1002.3 |
| 20260505214529 | 78 | 280 | 12.0 | 27.0 | 0.00 | 0.01 | 0.01 | 33 | 1002.3 |
| 20260505214028 | 77 | 228 | 17.0 | 21.0 | 0.00 | 0.01 | 0.01 | 34 | 1002.3 |
| 20260505213527 | 77 | 216 | 4.0 | 28.0 | 0.00 | 0.01 | 0.01 | 35 | 1002.2 |
| 20260505213143 | 78 | 238 | 21.0 | 28.0 | 0.00 | 0.01 | 0.01 | 34 | 1002.2 |
| 20260505212757 | 78 | 190 | 9.0 | 21.0 | 0.00 | 0.01 | 0.01 | 34 | 1002.3 |
| 20260505212027 | 78 | 224 | 10.0 | 32.0 | 0.00 | 0.01 | 0.01 | 34 | 1002.2 |
| 20260505211644 | 78 | 193 | 9.0 | 32.0 | 0.00 | 0.01 | 0.01 | 34 | 1002.2 |
| 20260505211027 | 78 | 186 | 13.0 | 33.0 | 0.00 | 0.01 | 0.01 | 35 | 1002.2 |
| 20260505210527 | 78 | 173 | 8.0 | 33.0 | 0.00 | 0.01 | 0.01 | 34 | 1002.1 |
| 20260505210143 | 78 | 154 | 23.0 | 32.0 | 0.00 | 0.01 | 0.01 | 34 | 1001.9 |
| 20260505205528 | 79 | 201 | 12.0 | 30.0 | 0.00 | 0.01 | 0.01 | 34 | 1001.8 |
| 20260505205027 | 79 | 228 | 16.0 | 32.0 | 0.00 | 0.01 | 0.01 | 35 | 1001.7 |
| 20260505204530 | 79 | 208 | 26.0 | 35.0 | 0.00 | 0.01 | 0.01 | 34 | 1001.9 |
| 20260505204028 | 79 | 197 | 14.0 | 36.0 | 0.00 | 0.01 | 0.01 | 34 | 1001.9 |
| 20260505203527 | 79 | 193 | 10.0 | 28.0 | 0.00 | 0.01 | 0.01 | 35 | 1001.8 |
| 20260505203028 | 79 | 198 | 15.0 | 28.0 | 0.00 | 0.01 | 0.01 | 35 | 1002.2 |
| 20260505202528 | 79 | 230 | 12.0 | 22.0 | 0.00 | 0.01 | 0.01 | 36 | 1002.2 |
| 20260505202027 | 79 | 206 | 8.0 | 27.0 | 0.00 | 0.01 | 0.01 | 35 | 1002.0 |
| 20260505201529 | 79 | 63 | 11.0 | 30.0 | 0.00 | 0.01 | 0.01 | 35 | 1002.0 |
| 20260505201027 | 79 | 155 | 16.0 | 26.0 | 0.00 | 0.01 | 0.01 | 36 | 1002.0 |
| 20260505200528 | 79 | 174 | 8.0 | 25.0 | 0.00 | 0.01 | 0.01 | 35 | 1002.1 |
| 20260505200029 | 79 | 187 | 12.0 | 27.0 | 0.00 | 0.01 | 0.01 | 36 | 1002.1 |
| 20260505195641 | 79 | 197 | 14.0 | 30.0 | 0.00 | 0.01 | 0.01 | 36 | 1002.1 |
| 20260505195141 | 79 | 172 | 23.0 | 30.0 | 0.00 | 0.01 | 0.01 | 36 | 1002.1 |
| 20260505194643 | 79 | 197 | 13.0 | 29.0 | 0.00 | 0.01 | 0.01 | 37 | 1002.2 |
| 20260505194027 | 79 | 226 | 13.0 | 30.0 | 0.00 | 0.01 | 0.01 | 36 | 1002.2 |
| 20260505193528 | 79 | 248 | 5.0 | 30.0 | 0.00 | 0.01 | 0.01 | 35 | 1002.2 |
| 20260505193144 | 79 | 184 | 16.0 | 28.0 | 0.00 | 0.01 | 0.01 | 36 | 1002.0 |